When you browse on this site, cookies collect data to enhance your experience and personalize the content and advertising you see.
Visit our Privacy Policy to learn more. By continuing to use the site, you agree to this use of cookies and data.
  • In Slovakia
  • List of Countries
  • For 7 days
  • Water Temperature
  • Weather Map
  • Weather Widgets
  • user-avatar
    Login

    Hourly Weather San Luis

    Today, 19 February, Wednesday

    Time Temperature Precipitation Wind Pressure Humidity
    00:00 +20°C° 0 mm 3 mps 696 mmHg 32%
    01:00 +20°C° 0 mm 3 mps 696 mmHg 35%
    02:00 +19°C° 0 mm 3 mps 696 mmHg 38%
    03:00 +19°C° 0 mm 3 mps 696 mmHg 40%
    04:00 +19°C° 0 mm 3 mps 695 mmHg 42%
    05:00 +19°C° 0 mm 3 mps 695 mmHg 44%
    06:00 +20°C° 0 mm 4 mps 696 mmHg 41%
    07:00 +22°C° 0 mm 4 mps 696 mmHg 39%
    08:00 +25°C° 0 mm 4 mps 697 mmHg 36%
    09:00 +26°C° 0 mm 5 mps 697 mmHg 34%
    10:00 +28°C° 0 mm 5 mps 697 mmHg 32%
    11:00 +29°C° 0 mm 5 mps 697 mmHg 30%
    12:00 +30°C° 0 mm 5 mps 697 mmHg 29%
    13:00 +32°C° 0 mm 5 mps 697 mmHg 29%
    14:00 +33°C° 0 mm 5 mps 697 mmHg 28%
    15:00 +33°C° 0 mm 4 mps 696 mmHg 28%
    16:00 +33°C° 0 mm 4 mps 696 mmHg 29%
    17:00 +33°C° 0 mm 3 mps 695 mmHg 29%
    18:00 +30°C° 0 mm 2 mps 696 mmHg 34%
    19:00 +27°C° 0 mm 2 mps 696 mmHg 39%
    20:00 +25°C° 0 mm 1 mps 696 mmHg 44%
    21:00 +25°C° 0 mm 3 mps 697 mmHg 41%
    22:00 +23°C° 0 mm 4 mps 698 mmHg 37%
    23:00 +23°C° 0 mm 6 mps 699 mmHg 34%

    Tomorrow, 20 February, Thursday

    Time Temperature Precipitation Wind Pressure Humidity
    00:00 +22°C° 0 mm 7 mps 699 mmHg 34%
    01:00 +21°C° 0 mm 7 mps 699 mmHg 34%
    02:00 +20°C° 0 mm 8 mps 700 mmHg 34%
    03:00 +18°C° 0 mm 8 mps 700 mmHg 34%
    04:00 +18°C° 0 mm 7 mps 700 mmHg 34%
    05:00 +18°C° 0 mm 7 mps 701 mmHg 34%
    06:00 +20°C° 0 mm 7 mps 701 mmHg 33%
    07:00 +21°C° 0 mm 7 mps 702 mmHg 32%
    08:00 +21°C° 0 mm 8 mps 703 mmHg 32%
    09:00 +23°C° 0 mm 8 mps 703 mmHg 30%
    10:00 +26°C° 0 mm 8 mps 703 mmHg 27%
    11:00 +27°C° 0 mm 8 mps 703 mmHg 25%
    12:00 +28°C° 0 mm 9 mps 703 mmHg 24%
    13:00 +28°C° 0 mm 9 mps 703 mmHg 23%
    14:00 +29°C° 0 mm 10 mps 702 mmHg 22%
    15:00 +29°C° 0 mm 10 mps 702 mmHg 23%
    16:00 +28°C° 0 mm 10 mps 701 mmHg 23%
    17:00 +27°C° 0 mm 10 mps 700 mmHg 23%
    18:00 +26°C° 0 mm 10 mps 701 mmHg 23%
    19:00 +24°C° 0 mm 10 mps 701 mmHg 22%
    20:00 +23°C° 0 mm 9 mps 701 mmHg 22%
    21:00 +22°C° 0 mm 9 mps 702 mmHg 22%
    22:00 +22°C° 0 mm 9 mps 702 mmHg 21%
    23:00 +21°C° 0 mm 9 mps 703 mmHg 21%

    Day after tomorrow, 21 February, Friday

    Time Temperature Precipitation Wind Pressure Humidity
    00:00 +21°C° 0 mm 9 mps 703 mmHg 21%
    01:00 +21°C° 0 mm 8 mps 703 mmHg 21%
    02:00 +20°C° 0 mm 7 mps 703 mmHg 22%
    09:00 +20°C° 0 mm 8 mps 706 mmHg 27%
    10:00 +21°C° 0 mm 7 mps 706 mmHg 27%
    11:00 +22°C° 0 mm 7 mps 706 mmHg 27%
    12:00 +24°C° 0 mm 7 mps 706 mmHg 26%
    13:00 +26°C° 0 mm 6 mps 705 mmHg 25%
    14:00 +27°C° 0 mm 6 mps 705 mmHg 24%
    15:00 +27°C° 0 mm 6 mps 705 mmHg 24%
    16:00 +27°C° 0 mm 5 mps 704 mmHg 24%
    17:00 +27°C° 0 mm 5 mps 704 mmHg 24%
    18:00 +26°C° 0 mm 5 mps 704 mmHg 25%
    19:00 +23°C° 0 mm 6 mps 704 mmHg 26%
    20:00 +21°C° 0 mm 6 mps 704 mmHg 28%
    21:00 +20°C° 0 mm 6 mps 704 mmHg 28%
    22:00 +20°C° 0 mm 6 mps 704 mmHg 28%
    23:00 +19°C° 0 mm 6 mps 704 mmHg 29%

    22 February, Saturday

    Time Temperature Precipitation Wind Pressure Humidity
    00:00 +19°C° 0 mm 5 mps 704 mmHg 29%
    01:00 +19°C° 0 mm 5 mps 704 mmHg 29%
    02:00 +19°C° 0 mm 5 mps 703 mmHg 29%
    03:00 +19°C° 0 mm 4 mps 703 mmHg 30%
    04:00 +19°C° 0 mm 4 mps 703 mmHg 30%
    05:00 +19°C° 0 mm 4 mps 703 mmHg 31%
    06:00 +20°C° 0 mm 4 mps 704 mmHg 31%
    07:00 +21°C° 0 mm 5 mps 704 mmHg 31%
    08:00 +22°C° 0 mm 5 mps 704 mmHg 31%
    09:00 +22°C° 0 mm 5 mps 704 mmHg 31%
    10:00 +23°C° 0 mm 5 mps 704 mmHg 32%
    11:00 +23°C° 0 mm 5 mps 704 mmHg 32%
    12:00 +25°C° 0 mm 5 mps 703 mmHg 32%
    13:00 +25°C° 0 mm 5 mps 703 mmHg 32%
    14:00 +26°C° 0 mm 5 mps 702 mmHg 31%
    15:00 +26°C° 0 mm 5 mps 702 mmHg 32%
    16:00 +26°C° 0 mm 4 mps 701 mmHg 34%
    17:00 +25°C° 0 mm 4 mps 700 mmHg 35%
    18:00 +24°C° 0 mm 3 mps 700 mmHg 38%
    19:00 +22°C° 0 mm 3 mps 700 mmHg 42%
    20:00 +20°C° 0 mm 2 mps 700 mmHg 46%
    21:00 +20°C° 0 mm 2 mps 700 mmHg 44%
    22:00 +20°C° 0 mm 3 mps 700 mmHg 43%
    23:00 +20°C° 0 mm 3 mps 700 mmHg 42%

    23 February, Sunday

    Time Temperature Precipitation Wind Pressure Humidity
    00:00 +20°C° 0 mm 4 mps 700 mmHg 42%
    01:00 +19°C° 0 mm 4 mps 699 mmHg 42%
    02:00 +19°C° 0 mm 5 mps 699 mmHg 42%
    03:00 +17°C° 0 mm 5 mps 698 mmHg 42%
    04:00 +17°C° 0 mm 5 mps 698 mmHg 43%
    05:00 +17°C° 0 mm 5 mps 698 mmHg 44%
    06:00 +19°C° 0 mm 5 mps 698 mmHg 41%
    07:00 +21°C° 0 mm 6 mps 698 mmHg 37%
    08:00 +22°C° 0 mm 6 mps 699 mmHg 34%
    09:00 +24°C° 0 mm 6 mps 699 mmHg 32%
    10:00 +27°C° 0 mm 6 mps 699 mmHg 31%
    11:00 +28°C° 0 mm 6 mps 698 mmHg 29%
    12:00 +29°C° 0 mm 6 mps 698 mmHg 28%
    13:00 +30°C° 0 mm 6 mps 697 mmHg 27%
    14:00 +32°C° 0 mm 6 mps 697 mmHg 26%
    15:00 +32°C° 0 mm 6 mps 696 mmHg 26%
    16:00 +32°C° 0 mm 6 mps 695 mmHg 27%
    17:00 +32°C° 0 mm 5 mps 695 mmHg 27%
    18:00 +28°C° 0 mm 5 mps 694 mmHg 32%
    19:00 +26°C° 0 mm 5 mps 694 mmHg 37%
    20:00 +22°C° 0 mm 4 mps 694 mmHg 42%
    21:00 +22°C° 0 mm 5 mps 694 mmHg 42%
    22:00 +22°C° 0 mm 5 mps 694 mmHg 42%
    23:00 +21°C° 0 mm 5 mps 694 mmHg 42%

    24 February, Monday

    Time Temperature Precipitation Wind Pressure Humidity
    00:00 +21°C° 0 mm 6 mps 694 mmHg 42%
    01:00 +21°C° 0 mm 6 mps 694 mmHg 41%
    02:00 +21°C° 0 mm 7 mps 693 mmHg 41%
    03:00 +21°C° 0 mm 6 mps 693 mmHg 41%
    04:00 +21°C° 0 mm 6 mps 693 mmHg 40%
    05:00 +20°C° 0 mm 6 mps 693 mmHg 40%
    06:00 +22°C° 0 mm 6 mps 694 mmHg 38%
    07:00 +23°C° 0 mm 6 mps 694 mmHg 35%
    08:00 +26°C° 0 mm 6 mps 695 mmHg 33%
    09:00 +28°C° 0 mm 6 mps 695 mmHg 30%
    10:00 +29°C° 0 mm 5 mps 695 mmHg 27%
    11:00 +32°C° 0 mm 4 mps 695 mmHg 24%
    12:00 +33°C° 0 mm 4 mps 695 mmHg 23%
    13:00 +34°C° 0 mm 3 mps 694 mmHg 22%
    14:00 +35°C° 0 mm 3 mps 694 mmHg 20%
    15:00 +35°C° 0 mm 3 mps 693 mmHg 20%
    16:00 +35°C° 0 mm 3 mps 692 mmHg 20%
    17:00 +35°C° 0 mm 3 mps 692 mmHg 19%
    18:00 +31°C° 0 mm 3 mps 691 mmHg 24%
    19:00 +29°C° 0 mm 3 mps 691 mmHg 29%
    20:00 +26°C° 0 mm 3 mps 691 mmHg 33%
    21:00 +26°C° 0 mm 3 mps 691 mmHg 34%
    22:00 +25°C° 0 mm 3 mps 692 mmHg 35%
    23:00 +25°C° 0 mm 3 mps 692 mmHg 35%
    Show more